Wetbulb
48.62 46.99 46.55 47.39 45.59 44.75 43.97 43.57 44.12 44.16 44.39 44.44 45.45 45.14 44.68 43.17 42.47 42.37 42.08 40.40 39.98 38.23
47.69 46.89 46.85 46.92 46.09 44.90 44.69 44.15 43.72 43.78 43.35 43.40 43.31 44.30 42.30 43.28 43.20 43.20 41.37 39.68 40.63 38.59
47.11 48.41 47.60 46.57 45.04 44.04 43.60 43.67 43.57 43.15 42.74 42.54 42.33 42.20 42.62 42.22 41.57 40.34 39.96 41.31 40.04 39.08
47.20 47.81 47.14 46.12 45.13 43.80 43.70 43.55 42.90 42.75 42.15 41.62 41.47 41.62 41.04 40.30 40.38 39.87 39.04 39.22 38.82 38.97
47.85 46.79 46.39 45.74 44.89 44.32 43.01 43.43 42.46 42.41 41.78 41.82 41.60 40.72 40.00 39.23 39.45 38.49 37.74 37.04 36.78 36.51
46.67 46.23 46.03 45.03 44.74 44.36 43.10 42.46 42.13 41.88 41.31 41.04 40.83 40.54 39.84 39.10 37.83 36.97 36.66 36.33 35.42 35.40
45.90 45.82 45.11 44.91 44.39 43.52 43.44 41.89 41.28 41.32 41.12 41.00 40.57 40.27 40.19 38.80 36.85 36.68 36.63 36.71 35.36 34.64
46.08 45.65 45.05 45.07 44.29 43.53 42.68 41.95 41.68 40.79 40.22 40.08 40.21 38.43 37.32 36.66 35.54 34.90 34.31 34.51 34.74 33.19
45.98 45.13 44.72 44.27 43.11 42.59 42.00 41.29 40.90 40.09 39.72 39.22 38.90 34.14 33.47 32.20 31.38 33.22 32.77 31.05 31.02 30.97
44.96 43.78 43.12 42.50 41.48 40.66 40.54 40.90 40.22 39.89 39.06 38.09 34.19 33.79 32.24 30.75 30.57 31.05 30.92 29.92 29.14 29.90
43.57 42.30 41.16 40.15 39.82 40.02 40.14 39.47 39.05 37.94 38.39 37.80 34.73 33.36 31.65 30.16 27.78 30.25 30.78 29.58 29.28 27.94
41.23 39.94 39.41 38.99 38.79 39.02 38.51 38.21 38.11 38.52 37.57 36.38 32.07 32.62 31.33 29.21 28.13 29.63 29.32 30.35 29.87 29.42
39.68 38.93 38.18 38.51 38.12 38.29 38.32 38.40 38.11 36.97 36.41 34.48 31.80 32.07 30.79 29.14 27.47 27.82 27.76 28.20 28.17 28.05
39.16 38.74 38.88 38.18 37.80 37.47 37.27 36.71 34.86 33.02 33.76 33.59 33.30 30.08 31.10 30.50 27.07 27.09 27.21 26.43 25.84 26.67
MSLP
1020.82 1021.30 1021.75 1021.92 1022.08 1022.41 1022.94 1023.24 1023.29 1023.44 1023.43 1023.28 1023.03 1022.93 1022.86 1023.11 1023.28 1023.26 1023.59 1023.83 1023.89 1023.84
1020.98 1021.32 1021.57 1021.94 1022.22 1022.57 1022.88 1023.00 1023.15 1023.38 1023.32 1023.18 1023.14 1022.92 1022.73 1022.99 1023.20 1023.36 1023.46 1023.50 1023.55 1023.69
1020.93 1021.13 1021.53 1021.79 1022.10 1022.44 1022.74 1022.93 1023.18 1023.14 1023.09 1023.05 1023.01 1022.89 1022.69 1022.74 1022.76 1022.96 1023.08 1023.06 1023.31 1023.55
1020.79 1020.96 1021.31 1021.60 1021.84 1022.16 1022.52 1022.74 1022.90 1022.93 1022.96 1022.93 1022.76 1022.47 1022.61 1022.71 1022.75 1022.89 1022.95 1022.93 1022.92 1023.66
1020.47 1020.66 1020.93 1021.20 1021.48 1021.75 1022.28 1022.41 1022.58 1022.70 1022.76 1022.64 1022.53 1022.44 1022.58 1022.68 1022.60 1022.59 1022.93 1022.96 1022.92 1023.08
1020.15 1020.49 1020.55 1020.68 1021.11 1021.61 1021.99 1022.25 1022.47 1022.63 1022.59 1022.42 1022.33 1022.24 1022.47 1022.55 1022.66 1022.43 1022.52 1022.75 1022.99 1023.20
1019.67 1019.89 1020.41 1020.64 1020.92 1021.40 1021.86 1021.95 1022.18 1022.32 1022.30 1022.17 1022.07 1022.00 1022.19 1022.43 1022.52 1022.61 1022.42 1022.68 1022.89 1023.02
1019.15 1019.44 1019.91 1020.44 1020.79 1021.10 1021.54 1021.73 1021.88 1021.82 1021.73 1021.78 1021.81 1022.30 1022.58 1022.99 1023.13 1022.90 1022.62 1022.56 1022.76 1022.85
1019.41 1019.91 1020.20 1020.52 1020.65 1020.96 1021.23 1021.31 1021.47 1021.53 1021.59 1021.82 1022.40 1023.09 1023.02 1023.17 1023.45 1023.23 1023.00 1022.82 1022.75 1022.91
1019.59 1019.84 1020.44 1020.81 1020.74 1020.74 1020.91 1021.08 1021.27 1021.34 1021.43 1021.56 1022.29 1022.79 1023.12 1023.44 1023.35 1023.44 1023.09 1022.87 1022.87 1022.97
1019.94 1020.22 1020.49 1020.93 1021.02 1020.98 1020.72 1020.92 1021.09 1021.12 1021.11 1021.35 1022.35 1022.72 1022.94 1023.16 1023.19 1023.31 1023.02 1022.91 1022.92 1022.97
1020.90 1021.17 1021.25 1021.01 1020.81 1020.72 1020.70 1020.84 1020.87 1020.71 1020.66 1020.95 1021.95 1022.46 1022.91 1023.38 1023.13 1023.15 1023.10 1022.94 1022.86 1022.73
1021.48 1021.59 1021.33 1021.29 1021.02 1020.90 1020.68 1020.57 1020.49 1020.87 1021.28 1021.13 1021.45 1022.39 1022.68 1023.00 1023.19 1023.01 1023.04 1022.94 1022.89 1022.99
1021.48 1021.27 1021.14 1021.21 1021.12 1020.95 1020.87 1020.50 1020.37 1020.65 1021.07 1021.19 1021.34 1021.76 1022.32 1022.54 1022.68 1022.92 1022.97 1023.06 1023.05 1023.10
Wind_Speed
7 4 4 5 3 2 2 2 3 4 5 6 6 6 4 1 3 2 4 5 6 3
6 6 5 5 4 3 1 3 4 4 5 6 7 7 3 3 4 5 5 4 4 4
6 6 6 4 4 2 1 3 4 5 5 5 6 7 6 4 4 4 3 4 3 4
6 6 5 4 4 2 1 3 3 5 5 6 7 6 5 6 6 5 6 5 2 5
6 6 7 5 3 3 1 2 3 5 6 6 7 4 4 6 7 4 6 5 4 3
7 5 4 3 2 1 1 2 3 6 6 6 6 3 2 4 4 4 4 4 5 5
7 7 3 1 1 1 3 2 3 5 6 6 6 3 3 3 4 5 4 3 3 5
5 4 3 2 1 2 2 3 5 4 5 6 4 5 6 6 6 5 3 3 5 5
0 1 3 2 2 3 5 5 4 4 5 4 5 8 8 4 4 6 6 5 5 5
1 6 3 4 4 5 5 4 4 4 4 3 7 10 8 4 2 5 5 5 5 5
4 2 5 5 6 6 3 4 5 4 5 2 7 11 9 4 1 5 5 4 5 4
5 6 6 6 5 4 5 4 3 5 4 3 8 12 10 3 2 4 5 4 5 4
6 7 7 6 5 4 5 5 3 4 4 3 8 10 9 5 1 3 3 4 5 6
5 6 5 5 5 5 6 6 4 3 3 3 7 9 13 10 3 2 1 1 3 2
Wind_Direction
111 121 157 165 113 101 57 333 359 335 330 319 313 310 12 328 283 287 264 281 291 299
149 181 141 124 113 97 39 317 15 332 319 323 324 311 295 236 261 268 267 277 278 265
182 158 145 141 145 105 60 10 307 314 317 316 307 303 292 275 289 330 304 280 230 264
200 159 160 179 149 140 76 284 313 314 314 300 288 283 334 340 326 330 317 297 297 317
194 177 190 184 172 163 211 277 302 307 298 297 293 356 348 322 309 316 307 342 18 301
186 214 210 181 160 196 271 287 337 311 302 294 306 270 292 292 351 324 341 359 4 350
198 191 195 106 63 295 281 285 304 287 296 292 291 326 343 338 333 331 337 15 306 294
183 150 170 190 240 271 307 289 266 281 291 291 314 42 40 20 332 327 324 337 324 325
28 278 36 336 348 278 261 253 267 289 291 11 69 109 91 57 351 327 322 328 349 343
36 26 327 313 324 316 288 291 295 285 291 286 130 139 130 123 5 320 311 342 353 334
354 317 13 350 306 293 324 318 287 280 272 246 141 154 151 132 275 281 315 3 314 308
19 351 325 301 316 328 329 298 294 274 252 228 151 166 152 176 294 317 325 325 310 305
335 341 311 303 337 310 294 294 287 27 18 76 131 165 163 181 259 321 300 316 326 84
300 296 304 314 293 306 306 275 260 220 209 244 159 173 188 188 180 234 347 339 304 143